IQ0OG-3 Weather Reports


Display with metric or nautical units.
time (UTC)temp
F
wind
direction
speed
MPH
gust
MPH
rain 1hr
in
rain 24hr
in
rain mn
in
humidity
%
barometer
mb
20260507164010 60 0 0.0 4.0 0.00 0.01 0.00 84 1010.7
20260507163009 60 6 2.0 4.0 0.00 0.01 0.00 86 1011.0
20260507161009 61 18 1.0 4.0 0.00 0.04 0.00 87 1011.0
20260507160010 61 0 0.0 2.0 0.00 0.08 0.00 87 1011.2
20260507155010 61 0 0.0 4.0 0.00 0.09 0.00 86 1011.2
20260507154010 61 0 0.0 4.0 0.00 0.11 0.00 86 1011.0
20260507153009 61 55 1.0 4.0 0.00 0.12 0.00 86 1011.1
20260507152010 61 26 1.0 4.0 0.00 0.12 0.00 86 1011.3
20260507150010 61 18 2.0 4.0 0.00 0.13 0.00 85 1011.5
20260507144010 60 59 2.0 6.0 0.00 0.14 0.00 87 1011.4
20260507143009 60 89 4.0 7.0 0.00 0.15 0.00 88 1011.2
20260507142010 61 82 4.0 7.0 0.00 0.15 0.00 86 1011.4
20260507141009 62 74 3.0 6.0 0.00 0.15 0.00 85 1011.3
20260507140012 61 78 3.0 7.0 0.00 0.15 0.00 87 1011.4
20260507135009 61 79 4.0 7.0 0.00 0.15 0.00 86 1011.5
20260507134010 62 63 2.0 6.0 0.00 0.15 0.00 85 1011.7
20260507133009 62 63 3.0 6.0 0.00 0.15 0.00 85 1011.7
20260507132009 64 72 3.0 6.0 0.00 0.15 0.00 83 1011.7
20260507131009 64 45 2.0 4.0 0.00 0.15 0.00 80 1011.8
20260507130010 63 68 2.0 7.0 0.00 0.15 0.00 81 1011.6
20260507125011 64 64 3.0 6.0 0.00 0.15 0.00 80 1011.6
20260507124010 64 0 0.0 6.0 0.00 0.15 0.00 79 1011.8
20260507123010 64 79 3.0 6.0 0.00 0.15 0.00 81 1011.9
20260507121010 65 66 2.0 4.0 0.00 0.15 0.00 79 1012.2
20260507115009 64 80 4.0 7.0 0.00 0.17 0.00 79 1012.1
20260507114009 64 59 1.0 6.0 0.00 0.17 0.00 80 1012.1
20260507110010 63 87 1.0 7.0 0.00 0.18 0.00 81 1012.3
20260507105009 63 84 4.0 6.0 0.00 0.18 0.00 82 1012.4
20260507103009 62 358 3.0 6.0 0.00 0.18 0.00 83 1012.5
20260507101009 62 71 2.0 4.0 0.00 0.18 0.00 84 1012.5
20260507100009 62 72 3.0 4.0 0.00 0.18 0.00 85 1012.6
20260507095009 61 75 2.0 4.0 0.00 0.18 0.00 85 1012.7
20260507094009 61 45 2.0 4.0 0.00 0.18 0.00 86 1012.6
20260507092009 60 61 1.0 4.0 0.00 0.18 0.00 88 1012.7
20260507090009 60 38 2.0 4.0 0.00 0.18 0.00 88 1012.5
20260507085009 60 42 1.0 4.0 0.00 0.18 0.00 88 1012.6
20260507084009 61 69 2.0 4.0 0.00 0.18 0.00 88 1012.5
20260507083008 61 46 2.0 6.0 0.00 0.18 0.00 86 1012.3
20260507082009 61 73 2.0 4.0 0.00 0.18 0.00 85 1012.4
20260507081008 61 29 1.0 4.0 0.00 0.18 0.00 84 1012.3
20260507080009 61 18 1.0 4.0 0.00 0.18 0.00 84 1012.2
20260507075009 61 12 2.0 4.0 0.00 0.18 0.00 85 1012.6
20260507074009 61 30 1.0 2.0 0.00 0.18 0.00 85 1012.4
20260507073008 60 0 0.0 2.0 0.00 0.18 0.00 87 1012.6
20260507072009 60 82 1.0 4.0 0.00 0.18 0.00 86 1012.4
20260507071008 60 35 1.0 2.0 0.00 0.18 0.00 83 1012.4
20260507070012 59 0 0.0 2.0 0.00 0.18 0.00 85 1012.4
20260507064009 60 11 2.0 2.0 0.00 0.18 0.00 86 1011.8
20260507063008 60 28 1.0 4.0 0.00 0.18 0.00 87 1011.9
20260507061009 63 0 0.0 2.0 0.00 0.18 0.00 77 1011.5
20260507060009 63 0 0.0 2.0 0.00 0.18 0.00 78 1011.6
20260507055008 61 0 0.0 2.0 0.00 0.18 0.00 82 1011.5
20260507054009 60 274 1.0 2.0 0.00 0.18 0.00 82 1011.7
20260507053008 60 0 0.0 2.0 0.00 0.18 0.00 80 1011.4
20260507052009 60 0 0.0 2.0 0.00 0.18 0.00 81 1011.5
20260507051008 59 279 1.0 2.0 0.00 0.18 0.00 82 1011.4
20260507045008 58 259 2.0 2.0 0.00 0.18 0.00 83 1011.6
20260507044008 57 248 2.0 2.0 0.00 0.18 0.00 84 1011.6
20260507042008 57 252 2.0 2.0 0.00 0.18 0.00 84 1011.1
20260507041009 56 274 2.0 2.0 0.00 0.18 0.00 85 1011.1
20260507040008 56 282 1.0 2.0 0.00 0.18 0.00 85 1011.2
20260507035009 56 273 1.0 2.0 0.00 0.18 0.00 84 1011.1
20260507034008 57 281 2.0 4.0 0.00 0.18 0.00 84 1011.1
20260507033008 56 285 1.0 2.0 0.00 0.18 0.00 84 1010.9
20260507031008 57 261 2.0 2.0 0.00 0.18 0.00 84 1011.2
20260507030008 56 0 0.0 2.0 0.00 0.18 0.00 85 1011.2
20260507025009 56 0 0.0 2.0 0.00 0.18 0.00 86 1011.2
20260507024008 56 277 2.0 4.0 0.00 0.18 0.00 87 1011.1
20260507023008 56 280 2.0 4.0 0.00 0.18 0.00 87 1011.0
20260507022008 56 268 3.0 4.0 0.00 0.18 0.00 86 1011.1
20260507021007 56 259 2.0 4.0 0.00 0.18 0.00 87 1011.2
20260507015008 56 270 2.0 4.0 0.00 0.18 0.00 87 1011.3
20260507014008 56 274 2.0 4.0 0.00 0.18 0.00 87 1011.3
20260507013008 56 269 2.0 4.0 0.00 0.18 0.00 88 1011.3
20260507012008 56 257 2.0 2.0 0.00 0.18 0.00 88 1011.5
20260507011008 56 255 1.0 2.0 0.00 0.18 0.00 88 1011.5
20260507010008 56 268 1.0 4.0 0.00 0.18 0.00 90 1011.4
20260507005007 56 249 2.0 4.0 0.00 0.18 0.00 91 1011.3
20260507004008 55 273 2.0 4.0 0.00 0.18 0.00 92 1011.5
20260507003008 56 265 2.0 2.0 0.00 0.18 0.00 92 1011.8
20260507002008 56 292 1.0 2.0 0.00 0.18 0.00 91 1011.8
20260507001008 57 196 2.0 4.0 0.00 0.18 0.00 90 1011.5
20260506235008 56 240 2.0 4.0 0.00 0.18 0.00 92 1011.9
20260506234008 56 237 2.0 4.0 0.00 0.18 0.00 93 1011.8
20260506233008 56 221 2.0 4.0 0.00 0.18 0.00 93 1011.8
20260506232008 56 0 0.0 4.0 0.00 0.18 0.00 93 1011.8
20260506231008 56 0 0.0 2.0 0.00 0.18 0.00 93 1011.8
20260506230008 56 0 0.0 2.0 0.00 0.18 0.00 93 1011.7
20260506224007 56 179 1.0 4.0 0.00 0.18 0.00 93 1011.6
20260506222007 57 242 2.0 7.0 0.00 0.18 0.00 92 1011.5
20260506221007 57 158 2.0 6.0 0.00 0.18 0.00 91 1011.7
20260506215008 57 237 3.0 6.0 0.00 0.18 0.18 89 1011.4
20260506214007 57 270 3.0 4.0 0.00 0.18 0.18 89 1011.6
20260506213008 57 190 2.0 4.0 0.00 0.18 0.18 90 1011.5
20260506211007 56 284 1.0 4.0 0.00 0.18 0.18 92 1011.4
20260506210009 56 0 0.0 2.0 0.00 0.18 0.18 92 1011.4
20260506204008 57 261 2.0 2.0 0.00 0.18 0.18 92 1011.7
20260506203007 57 267 1.0 2.0 0.00 0.18 0.18 92 1011.8
20260506202008 57 281 1.0 2.0 0.00 0.19 0.18 91 1011.9
20260506201007 58 262 1.0 2.0 0.01 0.19 0.18 90 1011.9
20260506194008 58 236 2.0 4.0 0.01 0.19 0.18 88 1012.1
20260506193007 58 198 2.0 4.0 0.01 0.19 0.18 89 1012.0
20260506192007 58 208 2.0 4.0 0.01 0.19 0.18 90 1011.9
20260506190009 58 0 0.0 2.0 0.00 0.18 0.17 93 1011.8
20260506185007 58 0 0.0 4.0 0.00 0.18 0.17 93 1011.6
20260506183007 58 151 1.0 2.0 0.00 0.18 0.17 94 1011.4
20260506182007 58 0 0.0 2.0 0.00 0.18 0.17 94 1011.2
20260506180007 57 233 1.0 4.0 0.00 0.18 0.17 95 1011.1
20260506174007 57 0 0.0 2.0 0.00 0.18 0.17 96 1011.1
20260506173007 57 0 0.0 2.0 0.00 0.18 0.17 96 1011.0
20260506172007 57 0 0.0 2.0 0.00 0.18 0.17 96 1010.6
20260506171007 57 0 0.0 2.0 0.02 0.18 0.17 96 1010.7
20260506170007 58 110 1.0 2.0 0.07 0.18 0.17 96 1010.7
20260506165007 58 0 0.0 0.0 0.08 0.18 0.17 96 1010.6